Regional Weather Roundup
Issued by NWS Midland/Odessa, TX

Skip options and go directly to product.
Home | Oldest Version | Previous Version | Current Version | All | Graphics & Text | Save Text | Print | Product List | Glossary On

Skip product version selection by date and time.   
622
ASUS44 KMAF 100210
RWRMAF
MIDLAND AREA WEATHER ROUNDUP
NATIONAL WEATHER SERVICE MIDLAND TX
800 PM CST FRI DEC 09 2016

...IN SOUTHWEST TEXAS AND SOUTHEAST NEW MEXICO...

CITY           SKY/WX    TMP DP  RH WIND       PRES   REMARKS
ALPINE         CLEAR     40  35  80 SW13      30.36S WCI  33
ANDREWS        FAIR      35  32  87 S7        30.28S WCI  29
ARTESIA        CLOUDY    30  30 100 CALM      30.26S
BIG SPRING     CLEAR     38  32  79 SE7       30.34R WCI  32
CARLSBAD       CLOUDY    31  31 100 CALM      30.24S
DRYDEN           N/A     37  32  82 SE6       30.35F WCI  32
FORT STOCKTON  CLEAR     41  35  79 CALM      30.28S
GUAD PASS      NOT AVBL
HOBBS          CLOUDY    32  32 100 S7        30.26R WCI  26
MARFA          CLOUDY    32  30  92 SE3       30.35R
MIDLAND AIRPK  CLEAR     40  32  73 S8        30.31R WCI  35
MIDLAND INTL   CLEAR     38  31  76 S9        30.30R WCI  31
ODESSA         CLEAR     40  31  70 S10       30.29S WCI  33
PECOS          CLEAR     38  35  89 SE7       30.28F WCI  33
PRESIDIO       FAIR      41  35  77 CALM      30.34S
SEMINOLE       CLOUDY    34  31  90 CALM      30.28S
SNYDER         CLEAR     32  27  83 E8        30.33F WCI  25
WINK           CLEAR     37  34  89 SE7       30.27S WCI  32
$$
...OTHER STATIONS IN TEXAS...

CITY           SKY/WX    TMP DP  RH WIND       PRES   REMARKS
ABILENE        CLEAR     33  24  69 SE9       30.39F WCI  25
AMARILLO       CLOUDY    32  29  88 S14       30.22S WCI  22
AUSTIN         CLOUDY    44  24  45 NE6       30.51R
BROWNSVILLE    CLOUDY    45  35  68 NW14G20   30.46S WCI  38
CORPUS CHRISTI CLOUDY    48  31  51 NE7       30.49S
DALLAS FTW     PTCLDY    33  19  56 SE6       30.50S WCI  28
DEL RIO        MOCLDY    40  32  73 SE7       30.45R WCI  35
EL PASO        PTCLDY    43  31  62 N5        30.29S
HOUSTON INT    CLOUDY    46  29  51 NE8       30.52R
LUBBOCK        CLOUDY    33  27  78 S12       30.27R WCI  24
SAN ANGELO     CLEAR     39  28  64 SE7       30.38R WCI  34
SAN ANTONIO    MOCLDY    41  25  53 E3        30.50S
WACO           CLOUDY    38  25  59 SE6       30.50S WCI  33
WICHITA FALLS  NOT AVBL
$$
...OTHER LOCATIONS IN NEW MEXICO...

CITY           SKY/WX    TMP DP  RH WIND       PRES   REMARKS
ALAMAGORDO     NOT AVBL
ALBUQUERQUE    CLOUDY    36  25  64 E8        30.30R WCI  30
CANNON AFB     CLOUDY    32  31  97 SW7       30.20R WCI  25
CLOVIS         CLOUDY    36  27  69 SW8       30.21R WCI  29
HOLLOMAN AFB   CLOUDY    33  23  66 NE7       30.34S WCI  27
ROSWELL        CLOUDY    28  25  88 SW6       30.24S WCI  22
RUIDOSO        CLOUDY    37  25  60 CALM      30.31S
SANTA FE       CLOUDY    31  22  69 NW5       30.28R WCI  26
TRUTH OR CONSE CLEAR     42  28  57 CALM      30.28R
TUCUMCARI      CLOUDY    42  29  59 SW7       30.14R WCI  38
$$